HB9BTL-13 Weather Reports


time (UTC)temp
C
wind
direction
speed
KPH
gust
KPH
rain 1hr
cm
rain 24hr
cm
rain mn
cm
humidity
%
barometer
mb
20260506022547 12 0.0 0.0 0.00 0.00 0.00 10 1007.9
20260506021042 12 0.0 0.0 0.00 0.00 0.00 10 1008.2
20260506015536 12 0.0 0.0 0.00 0.00 0.00 10 1008.5
20260506014031 12 0.0 0.0 0.00 0.00 0.00 10 1008.6
20260506012525 12 0.0 0.0 0.00 0.00 0.00 10 1008.9
20260506011021 12 0.0 0.0 0.00 0.00 0.00 10 1008.9
20260506005517 12 0.0 0.0 0.00 0.00 0.00 10 1009.0
20260506002504 12 0.0 0.0 0.00 0.00 0.00 10 1009.2
20260506000959 12 0.0 0.0 0.00 0.00 0.00 10 1009.5
20260505233948 13 0.0 0.0 0.00 0.00 0.00 10 1009.4
20260505232442 13 0.0 0.0 0.00 0.00 0.00 10 1009.7
20260505230940 13 0.0 0.0 0.00 0.00 0.00 10 1009.7
20260505225433 13 0.0 0.0 0.00 0.00 0.00 10 1009.8
20260505223927 13 0.0 0.0 0.00 0.00 0.00 10 1009.8
20260505222421 13 0.0 0.0 0.00 0.00 0.00 10 1009.8
20260505215414 13 0.0 0.0 0.00 0.00 0.00 10 1010.0
20260505213905 13 0.0 0.0 0.00 0.00 0.00 10 1010.0
20260505210854 13 0.0 0.0 0.00 0.00 0.00 10 1010.1
20260505205349 13 0.0 0.0 0.00 0.00 0.00 10 1010.2
20260505200835 13 0.0 0.0 0.00 0.00 0.00 10 1009.9
20260505195327 13 0.0 0.0 0.00 0.00 0.00 10 1009.8
20260505193826 13 0.0 0.0 0.00 0.00 0.00 10 1009.8
20260505190813 14 0.0 0.0 0.00 0.00 0.00 10 1009.4
20260505185305 14 0.0 0.0 0.00 0.00 0.00 10 1009.2
20260505183806 15 0.0 0.0 0.00 0.00 0.00 10 1009.1
20260505180751 15 0.0 0.0 0.00 0.00 0.00 10 1009.1
20260505173741 15 0.0 0.0 0.00 0.00 0.00 10 1009.4
20260505172233 15 0.0 0.0 0.00 0.00 0.00 10 1009.2
20260505165228 15 0.0 0.0 0.00 0.00 0.00 10 1009.0
20260505163717 15 0.0 0.0 0.00 0.00 0.00 10 1008.8
20260505162212 15 0.0 0.0 0.00 0.00 0.00 10 1009.3
20260505152155 15 0.0 0.0 0.00 0.00 0.00 76 1008.9
20260505140626 18 0.0 0.0 0.00 0.00 0.00 90 1008.3
20260505123551 17 0.0 0.0 0.00 0.00 0.00 90 1008.7
20260505120541 16 0.0 0.0 0.00 0.00 0.00 94 1008.9
20260505112025 16 0.0 0.0 0.00 0.00 0.00 95 1009.0
20260505110522 15 0.0 0.0 0.00 0.00 0.00 96 1009.2
20260505100457 15 0.0 0.0 0.00 0.00 0.00 93 1009.4
20260505094952 15 0.0 0.0 0.00 0.00 0.00 91 1009.4
20260505093446 15 0.0 0.0 0.00 0.00 0.00 93 1009.3
20260505084930 15 0.0 0.0 0.00 0.00 0.00 95 1009.5
20260505080414 13 0.0 0.0 0.00 0.00 0.00 97 1009.9
20260505074910 13 0.0 0.0 0.00 0.00 0.00 98 1010.1
20260505071858 13 0.0 0.0 0.00 0.00 0.00 97 1010.4
20260505070353 13 0.0 0.0 0.00 0.00 0.00 97 1010.5
20260505064847 13 0.0 0.0 0.00 0.00 0.00 99 1010.5
20260505063346 13 0.0 0.0 0.00 0.00 0.00 99 1010.6
20260505060331 13 0.0 0.0 0.00 0.00 0.00 98 1010.8
20260505053320 12 0.0 0.0 0.00 0.00 0.00 97 1010.6
20260505051816 12 0.0 0.0 0.00 0.00 0.00 96 1010.6
20260505041753 12 0.0 0.0 0.00 0.00 0.00 96 1010.7
20260505040248 12 0.0 0.0 0.00 0.00 0.00 95 1010.8
20260505034743 12 0.0 0.0 0.00 0.00 0.00 98 1010.5
20260505033242 12 0.0 0.0 0.00 0.00 0.00 98 1010.7
20260505030227 12 0.0 0.0 0.00 0.00 0.00 98 1010.9
20260505024721 12 0.0 0.0 0.00 0.00 0.00 99 1011.0